Willimantic, CT

5:35 AM EDT on June 24, 2017 (GMT -0400)
Windham

Weather History for KIJD - March, 2013

Change the Weather History Date:

Tuesday, March 12, 2013

  Actual Average Record
Temperature  
Mean Temperature 48 °F -  
Max Temperature 54 °F 47 °F 74 °F (1977)
Min Temperature 42 °F 24 °F -1 °F (1960)
Degree Days  
Heating Degree Days 17    
Moisture  
Dew Point 46 °F    
Average Humidity 84    
Maximum Humidity 90    
Minimum Humidity 72    
Precipitation  
Precipitation 0.79 in - - ()
Sea Level Pressure  
Sea Level Pressure 29.90 in    
Wind  
Wind Speed 7 mph (South)    
Max Wind Speed 17 mph    
Max Gust Speed 26 mph    
Visibility 6 miles    
Events Rain    
Averages and records for this station are not official NWS values.
T = Trace of Precipitation, MM = Missing Value Source: NWS Daily Summary

Daily Weather History Graph

Daily Weather History Graph

Search for Another Location

Airport or City:

Trip Planner

Search our weather history database for the weather conditions in past years. The results will help you decide how hot, cold, wet, or windy it might be!

Date:

Astronomy

Mar. 12, 2013 Rise Set
Actual Time 7:05 AM EDT 6:52 PM EDT
Civil Twilight 6:37 AM EDT 7:19 PM EDT
Nautical Twilight 6:05 AM EDT 7:52 PM EDT
Astronomical Twilight 5:32 AM EDT 8:24 PM EDT
Moon 7:08 AM EDT (3/12) 8:06 PM EDT (3/12)
Length of Visible Light 12h 42m
Length of Day
11h 46m
New Moon, 1% of the Moon is Illuminated
Mar 12
New Moon
Mar 19
First Quarter
Mar 27
Full
Apr 3
Last Quarter
Apr 10
New

Hourly Weather History & Observations

Time (EDT) Temp. Windchill Dew Point Humidity Pressure Visibility Wind Dir Wind Speed Gust Speed Precip Events Conditions
12:26 AM 42.8 °F - 37.4 °F 81% 30.14 in 9.0 mi Calm Calm - N/A   Overcast
12:52 AM 43.0 °F - 39.0 °F 86% 30.14 in 9.0 mi Calm Calm - N/A   Overcast
1:13 AM 42.8 °F - 39.2 °F 87% 30.13 in 9.0 mi Calm Calm - N/A   Overcast
1:52 AM 43.0 °F - 39.9 °F 89% 30.13 in 9.0 mi Calm Calm - N/A   Overcast
2:40 AM 42.8 °F - 39.2 °F 87% 30.10 in 8.0 mi Calm Calm - N/A   Partly Cloudy
2:52 AM 45.0 °F 42.6 °F 42.1 °F 90% 30.08 in 9.0 mi SSE 4.6 mph - N/A   Partly Cloudy
3:52 AM 45.0 °F 43.5 °F 42.1 °F 90% 30.06 in 9.0 mi SSE 3.5 mph - N/A   Clear
5:52 AM 42.1 °F - 39.0 °F 89% 30.05 in 7.0 mi Calm Calm - N/A   Scattered Clouds
6:52 AM 48.9 °F - 44.1 °F 83% 30.03 in 10.0 mi SSE 4.6 mph - N/A   Mostly Cloudy
7:52 AM 50.0 °F - 44.1 °F 80% 30.02 in 9.0 mi South 9.2 mph - N/A   Scattered Clouds
8:52 AM 52.0 °F - 45.0 °F 77% 30.02 in 10.0 mi South 10.4 mph - N/A   Overcast
9:52 AM 54.0 °F - 45.0 °F 72% 30.01 in 10.0 mi South 15.0 mph 21.9 mph N/A   Overcast
10:52 AM 53.1 °F - 45.0 °F 74% 29.99 in 9.0 mi South 12.7 mph 19.6 mph N/A   Overcast
11:52 AM 54.0 °F - 46.0 °F 75% 29.97 in 8.0 mi South 11.5 mph 17.3 mph 0.00 in Rain Light Rain
12:52 PM 53.1 °F - 46.9 °F 80% 29.95 in 5.0 mi South 10.4 mph - 0.00 in Rain Light Rain
1:52 PM 53.1 °F - 48.9 °F 86% 29.91 in 4.0 mi South 11.5 mph 18.4 mph 0.05 in Rain Light Rain
2:24 PM 53.6 °F - 48.2 °F 82% 29.89 in 3.0 mi South 13.8 mph 23.0 mph 0.03 in Rain Light Rain
2:41 PM 53.6 °F - 48.2 °F 82% 29.88 in 3.0 mi South 16.1 mph 21.9 mph 0.05 in Rain Light Rain
2:52 PM 53.1 °F - 48.9 °F 86% 29.87 in 3.0 mi South 12.7 mph - 0.07 in Rain Light Rain
3:27 PM 53.6 °F - 48.2 °F 82% 29.85 in 4.0 mi South 12.7 mph 21.9 mph 0.03 in Rain Light Rain
3:52 PM 53.1 °F - 48.9 °F 86% 29.83 in 4.0 mi South 13.8 mph 24.2 mph 0.06 in Rain Light Rain
4:52 PM 54.0 °F - 50.0 °F 86% 29.79 in 3.0 mi South 12.7 mph 23.0 mph 0.13 in Rain Rain
5:01 PM 53.6 °F - 50.0 °F 88% 29.78 in 2.5 mi South 12.7 mph 21.9 mph 0.03 in Rain Rain
5:09 PM 53.6 °F - 50.0 °F 88% 29.78 in 3.0 mi South 10.4 mph 20.7 mph 0.04 in Rain Rain
5:38 PM 53.6 °F - 50.0 °F 88% 29.75 in 2.5 mi SSE 12.7 mph 24.2 mph 0.11 in Rain Rain
5:45 PM 53.6 °F - 50.0 °F 88% 29.75 in 3.0 mi South 16.1 mph 23.0 mph 0.12 in Rain Light Rain
5:52 PM 54.0 °F - 50.0 °F 86% 29.75 in 2.5 mi South 15.0 mph 25.3 mph 0.16 in Rain Heavy Rain
6:05 PM 53.6 °F - 50.0 °F 88% 29.74 in 1.8 mi South 15.0 mph 26.5 mph 0.07 in Rain Heavy Rain
6:18 PM 53.6 °F - 50.0 °F 88% 29.73 in 2.0 mi South 16.1 mph 21.9 mph 0.15 in Rain Heavy Rain
6:25 PM 53.6 °F - 50.0 °F 88% 29.73 in 1.5 mi South 16.1 mph 26.5 mph 0.19 in Rain Heavy Rain
6:52 PM 54.0 °F - 51.1 °F 90% 29.73 in 2.0 mi South 17.3 mph 25.3 mph 0.32 in Rain Light Rain
7:14 PM 53.6 °F - 50.0 °F 88% 29.73 in 3.0 mi South 16.1 mph 26.5 mph 0.02 in Rain Light Rain
10:52 PM 46.9 °F - 43.0 °F 86% 29.78 in 10.0 mi WNW 11.5 mph 19.6 mph 0.00 in Rain Light Rain
10:58 PM 46.4 °F 41.1 °F 41.0 °F 81% 29.77 in 10.0 mi NW 11.5 mph 17.3 mph 0.00 in Rain Light Rain
11:52 PM 45.0 °F 41.2 °F 37.9 °F 76% 29.79 in 10.0 mi NNW 6.9 mph - 0.00 in   Overcast